{"data":{"norad_id":62897,"epoch":"2026-09-21T13:06:37.827360Z","epoch_age_seconds":77735,"freshness":"FRESH","line1":"1 62897U 25024U   26264.54627115  .00013593  00000+0  50208-3 0  9994","line2":"2 62897  43.0024 298.9193 0001918 265.6364  94.4269 15.27611709 92227","mean_motion":15.27611709,"eccentricity":0.0001918,"inclination_deg":43.0024,"raan_deg":298.9193,"arg_perigee_deg":265.6364,"mean_anomaly_deg":94.4269,"bstar":0.00050208,"rev_number":9222,"period_min":94.264791996302,"perigee_km":481.63819224631,"apogee_km":484.27010681127,"semimajor_km":6861.0911495288,"source":"CELESTRAK","updated_at":"2026-09-22T09:00:49.705641Z"}}